User: anonymous
Location: Bangkok
(13.7500°N, 100.5170°E)
Time: 07:10:14
(UTC+07:00)
Language:

Cosmos 1802 Rocket - Orbit

View from above orbital plane
View from above orbital plane
View from above satellite
View from above satellite

Ground track
Ground track

The orbit data is extracted from the following two-line orbital elements,

1 17160U 86093B   14260.71316102  .00000148  00000-0  13931-3 0  1710
2 17160 082.9239 088.7049 0040045 066.2904 343.6047 13.74516691395014
Epoch (UTC): 17 September 2014 17:06:57
Eccentricity: 0.0040045
inclination: 82.9239°
perigee height: 954 km
apogee height: 1013 km
right ascension of ascending node: 88.7049°
argument of perigee: 66.2904°
revolutions per day: 13.74516691
mean anomaly at epoch: 343.6047°
orbit number at epoch: 39501

The dashed part of the orbit path shows where the satellite is in the earth's shadow,  

DLR